Weather History for Miramar MCAS, CA

Change the Weather History Date:

Saturday, March 2, 2013

  Actual Average Record
Temperature  
Mean Temperature 67 °F -  
Max Temperature 82 °F 62 °F 84 °F (2009)
Min Temperature 52 °F 44 °F 37 °F (1997)
Cooling Degree Days 2    
Growing Degree Days 17 (Base 50)    
Moisture  
Dew Point 27 °F    
Average Humidity 26    
Maximum Humidity 43    
Minimum Humidity 11    
Precipitation  
Precipitation 0.00 in - - ()
Sea Level Pressure  
Sea Level Pressure 30.14 in    
Wind  
Wind Speed 7 mph (NE)    
Max Wind Speed 13 mph    
Max Gust Speed -    
Visibility 7 miles    
Events      
Averages and records for this station are not official NWS values.
T = Trace of Precipitation, MM = Missing Value Source: NWS Daily Summary

Daily Weather History Graph

Daily Weather History Graph

Search for Another Location

Airport:

Trip Planner

Search our weather history database for the weather conditions in past years. The results will help you decide how hot, cold, wet, or windy it might be!

Date:

Astronomy

Mar. 02, 2013 Rise Set
Actual Time 6:14 AM PST 5:46 PM PST
Civil Twilight 5:50 AM PST 6:11 PM PST
Nautical Twilight 5:21 AM PST 6:40 PM PST
Astronomical Twilight 4:52 AM PST 7:08 PM PST
Moon 11:10 PM PST (3/2) 9:05 AM PST (3/2)
Length of Visible Light 12h 21m
Length of Day
11h 32m
Waning Gibbous, 73% of the Moon is Illuminated
Mar 2
Waning Gibbous
Mar 4
Last Quarter
Mar 11
New
Mar 19
First Quarter
Mar 27
Full

Hourly Weather History & Observations

Time (PST) Temp. Dew Point Humidity Pressure Visibility Wind Dir Wind Speed Gust Speed Precip Events Conditions
12:55 AM 55.0 °F 28.0 °F 35% 30.18 in 7.0 mi ENE 10.4 mph - N/A   Clear
1:55 AM 54.0 °F 28.0 °F 37% 30.17 in 7.0 mi East 6.9 mph - N/A   Clear
2:55 AM 54.0 °F 27.0 °F 35% 30.16 in 7.0 mi ENE 9.2 mph - N/A   Clear
3:55 AM 55.9 °F 26.1 °F 32% 30.16 in 7.0 mi East 8.1 mph - N/A   Clear
4:55 AM 57.0 °F 26.1 °F 30% 30.16 in 7.0 mi East 9.2 mph - N/A   Clear
5:55 AM 55.0 °F 26.1 °F 33% 30.16 in 7.0 mi East 3.5 mph - N/A   Clear
6:55 AM 57.9 °F 28.0 °F 32% 30.17 in 7.0 mi East 8.1 mph - N/A   Partly Cloudy
7:55 AM 70.0 °F 28.9 °F 22% 30.18 in 7.0 mi East 3.5 mph - N/A   Clear
8:55 AM 77.0 °F 28.9 °F 17% 30.18 in 7.0 mi East 3.5 mph - N/A   Clear
9:55 AM 81.0 °F 26.1 °F 13% 30.18 in 7.0 mi Variable 4.6 mph - N/A   Partly Cloudy
10:55 AM 82.9 °F 21.9 °F 11% 30.17 in 7.0 mi West 3.5 mph - N/A   Partly Cloudy
11:55 AM 82.9 °F 24.1 °F 12% 30.15 in 7.0 mi West 9.2 mph - N/A   Partly Cloudy
12:55 PM 82.0 °F 21.9 °F 11% 30.12 in 7.0 mi West 12.7 mph - N/A   Partly Cloudy
1:55 PM 81.0 °F 21.9 °F 11% 30.11 in 7.0 mi WNW 9.2 mph - N/A   Scattered Clouds
2:55 PM 81.0 °F 25.0 °F 13% 30.09 in 7.0 mi NW 8.1 mph - N/A   Scattered Clouds
3:55 PM 75.9 °F 21.0 °F 13% 30.09 in 7.0 mi WNW 8.1 mph - N/A   Scattered Clouds
4:55 PM 73.9 °F 25.0 °F 16% 30.09 in 7.0 mi West 4.6 mph - N/A   Mostly Cloudy
5:55 PM 66.0 °F 26.1 °F 22% 30.09 in 7.0 mi NW 3.5 mph - N/A   Scattered Clouds
6:55 PM 55.9 °F 28.9 °F 36% 30.11 in 7.0 mi Calm Calm - N/A   Scattered Clouds
7:55 PM 54.0 °F 30.0 °F 40% 30.11 in 7.0 mi ENE 5.8 mph - N/A   Scattered Clouds
8:55 PM 52.0 °F 30.0 °F 43% 30.12 in 7.0 mi ENE 8.1 mph - N/A   Scattered Clouds
9:55 PM 55.0 °F 27.0 °F 34% 30.11 in 7.0 mi East 8.1 mph - N/A   Scattered Clouds
10:55 PM 55.0 °F 30.9 °F 40% 30.10 in 7.0 mi East 8.1 mph - N/A   Scattered Clouds
11:55 PM 54.0 °F 30.9 °F 41% 30.10 in 7.0 mi ENE 3.5 mph - N/A   Scattered Clouds